STARLINK-32347, 61010

Orbit data source: Space-Track

STARLINK-32347, 61010 is a payload satellite owned by SpaceX/Seattle (US) in LEO that was launched on Thu, 05 Sep 2024 UTC via an FALCON 9 launch vehicle from the Air Force Eastern Test Range (AFETR). Payload-class satellites include a variety of spacecraft equipped with specific instruments for various scientific and technological missions. These include communications satellites like Starlink; space stations such as the ISS; scientific satellites like the Hubble; Earth observation satellites from companies like Planet Labs, Umbra, and HawkEye 360; GPS; miniature CubeSats for education and research; and military/defense satellites.

Loading next visibility...
Identifier
61010, 2024-158W
Orbit
LEO
Country
Flag of USUS
Related business
Manufacturer
SpaceX/Seattle
Mission
Operational Commercial Communications
Bus & Motor
STARLINK V2M, Unknown motor
Mass
730 kg wet, ~700 kg dry
Launch date (UTC)
2024-09-05 (2 years ago)
Launch vehicle
FALCON 9
Launch site
Air Force Eastern Test Range (AFETR)
Object type
Payload
Rocket body
Debris
Shape & HBR
Box + 2 Pan, 17.7 m
Radar Cross Section
33.884 m², Large (>1 m²)

Expand to show TLE details & history
Last TLE update: 11 hours ago

TLE from 11 hours ago
0 STARLINK-32347
1 61010U 24158W   26123.82486720  .00003232  00000-0  12123-3 0  9991
2 61010  53.1582 169.3620 0001177  86.9870 273.1265 15.30191601 94023
Epoch: 2026-05-03T19:47Z
TLE epoch observation values (Epoch: 2026-05-03T19:47:48.526Z)
Latitude
-0.00003°
Longitude
10.68692°
Altitude
476.096 km
Speed
7.629 km/s
True Right ascension
11h 17m 26s
True Declination
0° 00' 00"
Sunlit
Object was in full shadow at epoch
Visualization orbit readout
Latitude
Unknown
Longitude
Unknown
Altitude
Unknown
Speed
Unknown
Apparent Right ascension
Unknown
Apparent Declination
Unknown
Sunlit
N/A
Visualization observer readout
Local Sidereal Time
14:26:29
Azimuth
Unknown
Elevation
Unknown
Doppler factor
Unknown
Orbital elements
Apogee altitude
476.304 km
Perigee altitude
474.69 km
Semi-major axis
6,853.634 km
Eccentricity
0.00012
Inclination
53.1582°
RAAN
169.362°
Arg. of periapsis
86.987°
True anomaly
273.11303°
Mean anomaly
273.1265°
Eccentric anomaly
273.11977°
Mean motion
3.82527 °/min
Orbital period
94.11 mins
BSTAR
0.00012123
Loading maneuver chart data...
Computing Atmospheric mass density...
Loading historical data...
Loading historical data...
Loading historical data...
Loading historical data...
Loading historical data...
Loading historical data...
Loading historical data...

Documentation

Showing up to 5 results
|